Location: Sunny Point
(33.0946°N, 85.0574°W)
Time: 07:16:56
(UTC+00:00)

NOAA 19 - Visible Passes

Search period start: 16 July 2024 00:00
Search period end: 26 July 2024 00:00
Orbit: 839 x 858 km, 99.0° (Epoch: 15 July)

Date Brightness Start Highest point End Pass type
(mag) Time Alt. Az. Time Alt. Az. Time Alt. Az.
16 Jul 6.8 01:18:25 10° ESE 01:22:08 19° ENE 01:25:50 10° NNE visible
16 Jul 5.9 02:59:26 26° SSW 03:02:18 50° W 03:07:41 10° NNW visible
17 Jul 5.5 02:46:58 28° S 02:49:56 67° WSW 02:55:28 10° NNW visible
18 Jul 5.2 02:34:30 28° SSE 02:37:36 87° WSW 02:43:10 10° NNW visible
19 Jul 5.2 02:22:02 26° SSE 02:25:17 72° ENE 02:30:49 10° N visible
19 Jul 7.7 04:04:34 10° WSW 04:06:19 11° W 04:08:04 10° WNW visible
20 Jul 5.4 02:09:34 22° SE 02:12:59 55° ENE 02:18:23 10° N visible
20 Jul 7.4 03:51:33 13° WSW 03:53:51 16° W 03:57:08 10° WNW visible
21 Jul 5.8 01:57:08 19° SE 02:00:42 41° ENE 02:05:52 10° N visible
21 Jul 7.2 03:39:05 17° SW 03:41:24 21° W 03:45:32 10° NW visible
22 Jul 6.1 01:44:40 15° SE 01:48:27 32° ENE 01:53:17 10° N visible
22 Jul 6.8 03:26:38 21° SW 03:28:59 28° W 03:33:40 10° NW visible
23 Jul 6.5 01:32:13 12° ESE 01:36:13 25° ENE 01:40:36 10° NNE visible
23 Jul 6.4 03:14:11 25° SW 03:16:34 37° W 03:21:40 10° NNW visible
24 Jul 6.8 01:20:15 10° ESE 01:24:00 19° ENE 01:27:45 10° NNE visible
24 Jul 5.9 03:01:44 29° SSW 03:04:11 49° W 03:09:33 10° NNW visible
25 Jul 7.0 01:08:57 10° E 01:11:49 14° ENE 01:14:41 10° NNE visible
25 Jul 5.5 02:49:17 32° S 02:51:50 65° WSW 02:57:20 10° NNW visible
